Time,TemperatureF,DewpointF,PressureIn,WindDirection,WindDirectionDegrees,WindSpeedMPH,WindSpeedGustMPH,Humidity,HourlyPrecipIn,Conditions,Clouds,dailyrainin,SoftwareType,DateUTC
2013-06-05 00:08:00,59.7,37.2,30.06,North,-999,0.0,0.0,43,0.00,,,-99.99,FreeWX 2.04,2013-06-05 04:08:00,
2013-06-05 00:18:00,59.4,37.4,30.06,North,-999,0.0,0.0,44,0.00,,,-99.99,FreeWX 2.04,2013-06-05 04:18:00,
2013-06-05 00:28:00,59.2,37.9,30.06,North,-999,0.0,0.0,45,0.00,,,-99.99,FreeWX 2.04,2013-06-05 04:28:00,
2013-06-05 00:38:00,58.5,37.2,30.06,North,-999,0.0,0.0,45,0.00,,,-99.99,FreeWX 2.04,2013-06-05 04:38:00,
2013-06-05 00:48:00,58.1,37.4,30.06,North,-999,0.0,0.0,46,0.00,,,-99.99,FreeWX 2.04,2013-06-05 04:48:00,
2013-06-05 00:58:00,57.9,37.8,30.06,North,-999,0.0,0.0,47,0.00,,,-99.99,FreeWX 2.04,2013-06-05 04:58:00,
2013-06-05 01:08:00,57.9,38.3,30.06,North,-999,0.0,0.0,48,0.00,,,-99.99,FreeWX 2.04,2013-06-05 05:08:00,
2013-06-05 01:18:00,57.6,37.9,30.06,North,-999,0.0,0.0,48,0.00,,,-99.99,FreeWX 2.04,2013-06-05 05:18:00,
2013-06-05 01:28:00,57.4,37.9,30.06,North,-999,0.0,0.0,48,0.00,,,-99.99,FreeWX 2.04,2013-06-05 05:28:00,
2013-06-05 01:38:00,57.0,38.1,30.06,North,-999,0.0,0.0,49,0.00,,,-99.99,FreeWX 2.04,2013-06-05 05:38:00,
2013-06-05 01:48:00,56.8,37.9,30.03,North,-999,0.0,0.0,49,0.00,,,-99.99,FreeWX 2.04,2013-06-05 05:48:00,
2013-06-05 01:58:00,56.7,38.3,30.03,North,-999,0.0,0.0,50,0.00,,,-99.99,FreeWX 2.04,2013-06-05 05:58:00,
2013-06-05 02:08:00,56.3,37.9,30.06,North,-999,0.0,0.0,50,0.00,,,-99.99,FreeWX 2.04,2013-06-05 06:08:00,
2013-06-05 02:18:00,56.1,38.3,30.06,North,-999,0.0,0.0,51,0.00,,,-99.99,FreeWX 2.04,2013-06-05 06:18:00,
2013-06-05 02:28:00,55.9,38.5,30.06,North,-999,0.0,0.0,52,0.00,,,-99.99,FreeWX 2.04,2013-06-05 06:28:00,
2013-06-05 02:38:00,55.9,38.5,30.06,North,-999,0.0,0.0,52,0.00,,,-99.99,FreeWX 2.04,2013-06-05 06:38:00,
2013-06-05 02:48:00,55.9,38.5,30.06,North,-999,0.0,0.0,52,0.00,,,-99.99,FreeWX 2.04,2013-06-05 06:48:00,
2013-06-05 02:58:00,55.8,38.8,30.06,North,-999,0.0,0.0,53,0.00,,,-99.99,FreeWX 2.04,2013-06-05 06:58:00,
2013-06-05 03:08:00,55.8,38.8,30.03,North,-999,0.0,0.0,53,0.00,,,-99.99,FreeWX 2.04,2013-06-05 07:08:00,
2013-06-05 03:18:00,55.8,38.8,30.03,North,-999,0.0,0.0,53,0.00,,,-99.99,FreeWX 2.04,2013-06-05 07:18:00,
2013-06-05 03:28:00,55.4,38.5,30.03,North,-999,0.0,0.0,53,0.00,,,-99.99,FreeWX 2.04,2013-06-05 07:28:00,
2013-06-05 03:38:00,55.4,39.0,30.03,North,-999,0.0,0.0,54,0.00,,,-99.99,FreeWX 2.04,2013-06-05 07:38:00,
2013-06-05 03:48:00,55.6,39.2,30.03,North,-999,0.0,0.0,54,0.00,,,-99.99,FreeWX 2.04,2013-06-05 07:48:00,
2013-06-05 03:58:00,55.6,38.7,30.03,North,-999,0.0,0.0,53,0.00,,,-99.99,FreeWX 2.04,2013-06-05 07:58:00,
2013-06-05 04:08:00,55.2,38.3,30.03,North,-999,0.0,0.0,53,0.00,,,-99.99,FreeWX 2.04,2013-06-05 08:08:00,
2013-06-05 04:18:00,55.2,38.8,30.03,North,-999,0.0,0.0,54,0.00,,,-99.99,FreeWX 2.04,2013-06-05 08:18:00,
2013-06-05 04:28:00,55.4,38.5,30.03,North,-999,0.0,0.0,53,0.00,,,-99.99,FreeWX 2.04,2013-06-05 08:28:00,
2013-06-05 04:38:00,55.4,38.5,30.03,North,-999,0.0,0.0,53,0.00,,,-99.99,FreeWX 2.04,2013-06-05 08:38:00,
2013-06-05 04:48:00,55.2,38.3,30.03,North,-999,0.0,0.0,53,0.00,,,-99.99,FreeWX 2.04,2013-06-05 08:48:00,
2013-06-05 04:58:00,55.4,39.0,30.03,North,-999,0.0,0.0,54,0.00,,,-99.99,FreeWX 2.04,2013-06-05 08:58:00,
2013-06-05 05:08:00,55.4,39.0,30.03,North,-999,0.0,0.0,54,0.00,,,-99.99,FreeWX 2.04,2013-06-05 09:08:00,
2013-06-05 05:18:00,55.0,38.3,30.03,North,-999,0.0,0.0,53,0.00,,,-99.99,FreeWX 2.04,2013-06-05 09:18:00,
2013-06-05 05:28:00,55.0,38.7,30.03,North,-999,0.0,0.0,54,0.00,,,-99.99,FreeWX 2.04,2013-06-05 09:28:00,
2013-06-05 05:38:00,55.0,38.7,30.03,North,-999,0.0,0.0,54,0.00,,,-99.99,FreeWX 2.04,2013-06-05 09:38:00,
2013-06-05 05:48:00,54.9,38.5,30.03,North,-999,0.0,0.0,54,0.00,,,-99.99,FreeWX 2.04,2013-06-05 09:48:00,
2013-06-05 05:58:00,55.0,39.2,30.03,North,-999,0.0,0.0,55,0.00,,,-99.99,FreeWX 2.04,2013-06-05 09:58:00,
2013-06-05 06:08:00,55.2,39.4,30.03,North,-999,0.0,0.0,55,0.00,,,-99.99,FreeWX 2.04,2013-06-05 10:08:00,
2013-06-05 06:18:00,55.4,39.6,30.03,North,-999,0.0,0.0,55,0.00,,,-99.99,FreeWX 2.04,2013-06-05 10:18:00,
2013-06-05 06:28:00,55.6,39.2,30.03,North,-999,0.0,0.0,54,0.00,,,-99.99,FreeWX 2.04,2013-06-05 10:28:00,
2013-06-05 06:38:00,55.6,38.7,30.03,North,-999,0.0,0.0,53,0.00,,,-99.99,FreeWX 2.04,2013-06-05 10:38:00,
2013-06-05 06:48:00,55.6,39.2,30.03,North,-999,0.0,0.0,54,0.00,,,-99.99,FreeWX 2.04,2013-06-05 10:48:00,
2013-06-05 06:58:00,55.8,39.4,30.03,North,-999,0.0,0.0,54,0.00,,,-99.99,FreeWX 2.04,2013-06-05 10:58:00,
2013-06-05 07:08:00,55.9,39.6,30.03,North,-999,0.0,0.0,54,0.00,,,-99.99,FreeWX 2.04,2013-06-05 11:08:00,
2013-06-05 07:18:00,56.5,40.1,30.06,North,-999,0.0,0.0,54,0.00,,,-99.99,FreeWX 2.04,2013-06-05 11:18:00,
2013-06-05 07:28:00,56.8,40.5,30.06,North,-999,0.0,0.0,54,0.00,,,-99.99,FreeWX 2.04,2013-06-05 11:28:00,
2013-06-05 07:38:00,57.6,41.5,30.03,North,-999,0.0,0.0,55,0.00,,,-99.99,FreeWX 2.04,2013-06-05 11:38:00,
2013-06-05 07:48:00,58.1,41.5,30.03,North,-999,0.0,0.0,54,0.00,,,-99.99,FreeWX 2.04,2013-06-05 11:48:00,
2013-06-05 07:58:00,58.8,42.3,30.03,North,-999,0.0,0.0,54,0.00,,,-99.99,FreeWX 2.04,2013-06-05 11:58:00,
2013-06-05 08:08:00,59.4,42.3,30.03,North,-999,0.0,0.0,53,0.00,,,-99.99,FreeWX 2.04,2013-06-05 12:08:00,
2013-06-05 08:18:00,59.9,41.7,30.03,North,-999,0.0,0.0,51,0.00,,,-99.99,FreeWX 2.04,2013-06-05 12:18:00,
2013-06-05 08:28:00,60.6,39.7,30.03,North,-999,0.0,0.0,46,0.00,,,-99.99,FreeWX 2.04,2013-06-05 12:28:00,
2013-06-05 08:38:00,61.9,39.7,30.03,North,-999,0.0,4.0,44,0.00,,,-99.99,FreeWX 2.04,2013-06-05 12:38:00,
2013-06-05 08:48:00,63.0,40.1,30.03,North,-999,0.0,4.9,43,0.00,,,-99.99,FreeWX 2.04,2013-06-05 12:48:00,
2013-06-05 08:58:00,63.5,36.7,30.03,NNW,343,1.0,4.0,37,0.00,,,-99.99,FreeWX 2.04,2013-06-05 12:58:00,
2013-06-05 09:08:00,64.2,35.2,30.03,West,280,2.0,4.5,34,0.00,,,-99.99,FreeWX 2.04,2013-06-05 13:08:00,
2013-06-05 09:18:00,65.3,36.1,30.03,NNW,338,2.0,5.4,34,0.00,,,-99.99,FreeWX 2.04,2013-06-05 13:18:00,
2013-06-05 09:28:00,66.4,37.9,30.03,West,261,1.0,5.4,35,0.00,,,-99.99,FreeWX 2.04,2013-06-05 13:28:00,
2013-06-05 09:38:00,68.0,37.0,30.03,NNW,339,2.0,4.5,32,0.00,,,-99.99,FreeWX 2.04,2013-06-05 13:38:00,
2013-06-05 09:48:00,69.8,36.1,30.03,North,351,1.0,4.9,29,0.00,,,-99.99,FreeWX 2.04,2013-06-05 13:48:00,
2013-06-05 09:58:00,71.2,36.5,30.03,NNW,346,2.0,4.0,28,0.00,,,-99.99,FreeWX 2.04,2013-06-05 13:58:00,
2013-06-05 10:08:00,72.5,34.7,30.03,NNW,335,3.0,6.3,25,0.00,,,-99.99,FreeWX 2.04,2013-06-05 14:08:00,
2013-06-05 10:18:00,73.2,35.2,30.03,NNW,327,1.0,5.8,25,0.00,,,-99.99,FreeWX 2.04,2013-06-05 14:18:00,
2013-06-05 10:28:00,74.8,35.6,30.03,NNW,342,2.0,4.9,24,0.00,,,-99.99,FreeWX 2.04,2013-06-05 14:28:00,
2013-06-05 10:38:00,74.7,33.3,30.03,NNW,334,2.0,5.4,22,0.00,,,-99.99,FreeWX 2.04,2013-06-05 14:38:00,
2013-06-05 10:48:00,75.2,36.0,30.00,NNW,331,2.0,4.9,24,0.00,,,-99.99,FreeWX 2.04,2013-06-05 14:48:00,
2013-06-05 10:58:00,77.0,37.4,30.00,NNW,342,2.0,4.5,24,0.00,,,-99.99,FreeWX 2.04,2013-06-05 14:58:00,
2013-06-05 11:08:00,79.2,35.8,30.00,North,349,2.0,4.5,21,0.00,,,-99.99,FreeWX 2.04,2013-06-05 15:08:00,
2013-06-05 11:18:00,80.4,35.6,30.00,NNW,345,3.0,5.4,20,0.00,,,-99.99,FreeWX 2.04,2013-06-05 15:18:00,
2013-06-05 11:28:00,80.2,36.7,30.00,NNW,347,2.0,4.9,21,0.00,,,-99.99,FreeWX 2.04,2013-06-05 15:28:00,
2013-06-05 11:38:00,82.4,37.2,30.00,NNW,344,2.0,5.8,20,0.00,,,-99.99,FreeWX 2.04,2013-06-05 15:38:00,
2013-06-05 11:48:00,84.4,37.6,30.00,NNW,343,3.0,6.3,19,0.00,,,-99.99,FreeWX 2.04,2013-06-05 15:48:00,
2013-06-05 11:58:00,84.9,36.7,30.00,NNW,343,3.0,7.4,18,0.00,,,-99.99,FreeWX 2.04,2013-06-05 15:58:00,
2013-06-05 12:08:00,84.7,36.5,30.00,NNW,343,4.0,6.9,18,0.00,,,-99.99,FreeWX 2.04,2013-06-05 16:08:00,
2013-06-05 12:18:00,86.0,34.5,30.00,North,6,2.0,7.4,16,0.00,,,-99.99,FreeWX 2.04,2013-06-05 16:18:00,
2013-06-05 12:28:00,86.7,38.1,30.00,North,1,2.0,5.8,18,0.00,,,-99.99,FreeWX 2.04,2013-06-05 16:28:00,
2013-06-05 12:38:00,88.2,34.7,29.97,NNW,346,4.0,8.3,15,0.00,,,-99.99,FreeWX 2.04,2013-06-05 16:38:00,
2013-06-05 12:48:00,89.4,35.6,29.97,NNW,341,3.0,6.3,15,0.00,,,-99.99,FreeWX 2.04,2013-06-05 16:48:00,
2013-06-05 12:58:00,89.2,35.6,29.97,North,6,4.0,7.8,15,0.00,,,-99.99,FreeWX 2.04,2013-06-05 16:58:00,
2013-06-05 13:08:00,89.4,35.6,29.97,North,355,3.0,6.9,15,0.00,,,-99.99,FreeWX 2.04,2013-06-05 17:08:00,
2013-06-05 13:18:00,90.0,36.1,29.97,North,8,4.0,7.4,15,0.00,,,-99.99,FreeWX 2.04,2013-06-05 17:18:00,
2013-06-05 13:28:00,89.2,30.0,29.97,NNW,340,3.0,10.5,12,0.00,,,-99.99,FreeWX 2.04,2013-06-05 17:28:00,
2013-06-05 13:38:00,89.2,35.6,29.97,North,352,3.0,5.8,15,0.00,,,-99.99,FreeWX 2.04,2013-06-05 17:38:00,
2013-06-05 13:48:00,88.5,34.9,29.97,North,1,2.0,6.3,15,0.00,,,-99.99,FreeWX 2.04,2013-06-05 17:48:00,
2013-06-05 13:58:00,89.6,35.8,29.97,North,357,3.0,6.9,15,0.00,,,-99.99,FreeWX 2.04,2013-06-05 17:58:00,
2013-06-05 14:08:00,88.9,35.2,29.94,NE,43,3.0,6.7,15,0.00,,,-99.99,FreeWX 2.04,2013-06-05 18:08:00,
2013-06-05 14:18:00,90.0,30.6,29.94,North,7,3.0,6.7,12,0.00,,,-99.99,FreeWX 2.04,2013-06-05 18:18:00,
2013-06-05 14:28:00,91.6,31.8,29.94,North,0,3.0,7.8,12,0.00,,,-99.99,FreeWX 2.04,2013-06-05 18:28:00,
2013-06-05 14:38:00,87.8,30.7,29.94,NNE,14,4.0,8.7,13,0.00,,,-99.99,FreeWX 2.04,2013-06-05 18:38:00,
2013-06-05 14:48:00,88.7,35.1,29.94,North,350,2.0,6.9,15,0.00,,,-99.99,FreeWX 2.04,2013-06-05 18:48:00,
2013-06-05 14:59:00,91.4,35.4,29.94,South,171,2.0,5.4,14,0.00,,,-99.99,FreeWX 2.04,2013-06-05 18:59:00,
2013-06-05 15:09:00,91.6,35.6,29.94,ESE,122,2.0,6.3,14,0.00,,,-99.99,FreeWX 2.04,2013-06-05 19:09:00,
2013-06-05 15:19:00,91.9,32.0,29.94,North,358,3.0,6.3,12,0.00,,,-99.99,FreeWX 2.04,2013-06-05 19:19:00,
2013-06-05 15:29:00,92.8,30.6,29.94,North,349,3.0,6.9,11,0.00,,,-99.99,FreeWX 2.04,2013-06-05 19:29:00,
2013-06-05 15:39:00,90.1,30.7,29.91,North,354,3.0,7.8,12,0.00,,,-99.99,FreeWX 2.04,2013-06-05 19:39:00,
2013-06-05 15:49:00,88.3,31.3,29.91,North,353,3.0,6.9,13,0.00,,,-99.99,FreeWX 2.04,2013-06-05 19:49:00,
2013-06-05 15:59:00,87.6,30.7,29.91,NNW,345,3.0,6.7,13,0.00,,,-99.99,FreeWX 2.04,2013-06-05 19:59:00,
2013-06-05 16:09:00,86.9,35.2,29.91,North,-999,0.0,4.0,16,0.00,,,-99.99,FreeWX 2.04,2013-06-05 20:09:00,
2013-06-05 16:19:00,85.6,34.3,29.91,North,-999,0.0,4.5,16,0.00,,,-99.99,FreeWX 2.04,2013-06-05 20:19:00,
2013-06-05 16:29:00,86.4,34.9,29.91,North,355,2.0,7.8,16,0.00,,,-99.99,FreeWX 2.04,2013-06-05 20:29:00,
2013-06-05 16:39:00,86.0,34.5,29.91,North,351,2.0,4.9,16,0.00,,,-99.99,FreeWX 2.04,2013-06-05 20:39:00,
2013-06-05 16:49:00,85.8,34.3,29.91,North,349,1.0,5.4,16,0.00,,,-99.99,FreeWX 2.04,2013-06-05 20:49:00,
2013-06-05 16:59:00,84.7,33.6,29.91,North,0,2.0,5.4,16,0.00,,,-99.99,FreeWX 2.04,2013-06-05 20:59:00,
2013-06-05 17:09:00,83.3,37.9,29.91,North,-999,0.0,4.0,20,0.00,,,-99.99,FreeWX 2.04,2013-06-05 21:09:00,
2013-06-05 17:34:00,71.2,44.2,29.94,SE,130,2.0,16.8,38,0.16,,,-99.99,FreeWX 2.04,2013-06-05 21:34:00,
2013-06-05 17:44:00,69.6,50.2,29.94,SE,142,3.0,8.3,50,0.16,,,-99.99,FreeWX 2.04,2013-06-05 21:44:00,
2013-06-05 17:54:00,69.1,53.2,29.94,SSE,155,2.0,4.9,57,0.20,,,-99.99,FreeWX 2.04,2013-06-05 21:54:00,
2013-06-05 18:04:00,69.1,54.1,29.91,North,-999,0.0,4.5,59,0.20,,,-99.99,FreeWX 2.04,2013-06-05 22:04:00,
2013-06-05 18:14:00,69.4,54.0,29.91,North,-999,0.0,3.1,58,0.24,,,-99.99,FreeWX 2.04,2013-06-05 22:14:00,
2013-06-05 18:24:00,69.6,53.2,29.91,North,-999,0.0,0.0,56,0.12,,,-99.99,FreeWX 2.04,2013-06-05 22:24:00,
2013-06-05 18:34:00,70.0,54.0,29.88,North,-999,0.0,0.0,57,0.08,,,-99.99,FreeWX 2.04,2013-06-05 22:34:00,
2013-06-05 18:44:00,70.2,54.1,29.88,North,-999,0.0,0.0,57,0.08,,,-99.99,FreeWX 2.04,2013-06-05 22:44:00,
2013-06-05 18:54:00,70.2,55.2,29.88,North,-999,0.0,0.0,59,0.04,,,-99.99,FreeWX 2.04,2013-06-05 22:54:00,
2013-06-05 19:04:00,70.3,54.9,29.88,North,-999,0.0,0.0,58,0.04,,,-99.99,FreeWX 2.04,2013-06-05 23:04:00,
2013-06-05 19:14:00,70.5,55.4,29.88,North,-999,0.0,0.0,59,0.00,,,-99.99,FreeWX 2.04,2013-06-05 23:14:00,
2013-06-05 19:24:00,70.3,55.4,29.88,North,-999,0.0,0.0,59,0.00,,,-99.99,FreeWX 2.04,2013-06-05 23:24:00,
2013-06-05 19:34:00,70.3,55.4,29.88,North,-999,0.0,0.0,59,0.00,,,-99.99,FreeWX 2.04,2013-06-05 23:34:00,
2013-06-05 19:44:00,69.8,54.3,29.88,North,-999,0.0,0.0,58,0.00,,,-99.99,FreeWX 2.04,2013-06-05 23:44:00,
2013-06-05 19:54:00,70.0,55.9,29.88,North,-999,0.0,0.0,61,0.00,,,-99.99,FreeWX 2.04,2013-06-05 23:54:00,
2013-06-05 20:04:00,70.0,56.3,29.88,North,-999,0.0,4.0,62,0.00,,,-99.99,FreeWX 2.04,2013-06-06 00:04:00,
2013-06-05 20:14:00,69.6,56.5,29.88,North,-999,0.0,3.1,63,0.00,,,-99.99,FreeWX 2.04,2013-06-06 00:14:00,
2013-06-05 20:24:00,69.3,55.8,29.88,North,-999,0.0,4.0,62,0.00,,,-99.99,FreeWX 2.04,2013-06-06 00:24:00,
2013-06-05 20:34:00,69.1,55.6,29.88,North,-999,0.0,0.0,62,0.00,,,-99.99,FreeWX 2.04,2013-06-06 00:34:00,
2013-06-05 20:44:00,69.1,55.6,29.88,North,-999,0.0,0.0,62,0.00,,,-99.99,FreeWX 2.04,2013-06-06 00:44:00,
2013-06-05 20:54:00,69.3,57.0,29.88,North,-999,0.0,0.0,65,0.00,,,-99.99,FreeWX 2.04,2013-06-06 00:54:00,
2013-06-05 21:04:00,69.1,57.2,29.88,North,-999,0.0,3.1,66,0.00,,,-99.99,FreeWX 2.04,2013-06-06 01:04:00,
2013-06-05 21:14:00,69.1,57.2,29.88,North,-999,0.0,0.0,66,0.00,,,-99.99,FreeWX 2.04,2013-06-06 01:14:00,
2013-06-05 21:24:00,68.9,57.0,29.91,North,-999,0.0,0.0,66,0.00,,,-99.99,FreeWX 2.04,2013-06-06 01:24:00,
2013-06-05 21:34:00,68.9,56.7,29.91,North,-999,0.0,0.0,65,0.00,,,-99.99,FreeWX 2.04,2013-06-06 01:34:00,
2013-06-05 21:44:00,68.9,57.6,29.91,North,-999,0.0,0.0,67,0.00,,,-99.99,FreeWX 2.04,2013-06-06 01:44:00,
2013-06-05 21:54:00,68.7,57.7,29.91,North,-999,0.0,3.1,68,0.00,,,-99.99,FreeWX 2.04,2013-06-06 01:54:00,
2013-06-05 22:04:00,68.7,58.1,29.91,North,-999,0.0,0.0,69,0.00,,,-99.99,FreeWX 2.04,2013-06-06 02:04:00,
2013-06-05 22:14:00,68.5,58.3,29.91,North,-999,0.0,3.6,70,0.00,,,-99.99,FreeWX 2.04,2013-06-06 02:14:00,
2013-06-05 22:24:00,68.4,58.6,29.91,North,-999,0.0,3.1,71,0.00,,,-99.99,FreeWX 2.04,2013-06-06 02:24:00,
2013-06-05 22:34:00,68.2,58.5,29.91,North,-999,0.0,3.1,71,0.00,,,-99.99,FreeWX 2.04,2013-06-06 02:34:00,
2013-06-05 22:44:00,68.2,58.5,29.91,North,-999,0.0,0.0,71,0.00,,,-99.99,FreeWX 2.04,2013-06-06 02:44:00,
2013-06-05 22:54:00,68.2,58.5,29.91,North,-999,0.0,0.0,71,0.00,,,-99.99,FreeWX 2.04,2013-06-06 02:54:00,
2013-06-05 23:04:00,68.2,58.1,29.91,North,-999,0.0,0.0,70,0.00,,,-99.99,FreeWX 2.04,2013-06-06 03:04:00,
2013-06-05 23:14:00,68.2,58.1,29.91,North,-999,0.0,0.0,70,0.00,,,-99.99,FreeWX 2.04,2013-06-06 03:14:00,
2013-06-05 23:24:00,68.0,57.9,29.91,North,-999,0.0,0.0,70,0.00,,,-99.99,FreeWX 2.04,2013-06-06 03:24:00,
2013-06-05 23:34:00,68.0,58.3,29.91,North,-999,0.0,0.0,71,0.00,,,-99.99,FreeWX 2.04,2013-06-06 03:34:00,
2013-06-05 23:44:00,67.8,58.1,29.91,North,-999,0.0,0.0,71,0.00,,,-99.99,FreeWX 2.04,2013-06-06 03:44:00,
2013-06-05 23:54:00,67.8,58.1,29.91,North,-999,0.0,0.0,71,0.00,,,-99.99,FreeWX 2.04,2013-06-06 03:54:00,